Wind_Speed
16 17 18 19 19 19 20 20 20 19 19 18 16 14 13 11 11 11 10 9 8 7 7 7 7 7 7 7 6 5 4 3 3 3 4 4 5 6 7 8 9 10 10 11
15 16 17 19 19 19 20 19 18 17 18 17 16 15 13 11 10 10 10 10 9 8 8 8 8 8 7 7 6 5 4 3 3 3 4 4 5 6 7 8 9 9 10 11
14 16 17 19 19 19 18 18 16 16 16 16 16 15 13 12 11 11 10 10 10 9 9 9 8 8 8 7 5 4 3 3 2 3 3 4 5 5 7 7 8 9 10 11
15 16 17 18 18 17 17 16 16 15 14 14 14 14 13 12 11 11 10 10 10 9 9 8 8 9 8 7 6 4 3 2 2 3 3 4 5 5 6 7 8 9 10 11
15 15 16 16 17 16 16 17 15 15 14 13 13 13 13 12 11 10 10 10 9 9 10 9 9 9 8 7 5 4 3 2 2 3 3 4 5 5 6 7 8 9 9 10
15 15 15 16 17 17 16 17 17 15 15 13 13 13 13 11 11 10 10 10 9 9 9 9 9 9 8 6 5 4 4 3 3 3 3 4 4 5 6 7 8 8 9 10
14 14 15 16 17 17 17 16 16 15 14 13 13 12 11 11 11 10 10 10 9 9 9 9 9 9 7 6 5 5 4 3 3 3 3 4 4 5 6 7 7 8 9 10
13 14 15 16 16 17 17 16 15 14 12 12 12 11 11 11 11 11 10 10 10 9 10 10 9 8 7 6 5 5 4 3 3 3 4 4 5 5 6 7 7 8 9 10
13 14 14 15 16 17 16 15 13 12 12 12 11 10 11 12 12 11 10 10 10 10 10 10 9 8 7 7 6 5 4 4 4 4 4 5 5 6 6 7 7 8 9 10
13 14 15 16 16 15 15 14 13 12 12 11 11 10 11 10 10 10 10 10 10 10 9 10 9 8 7 7 6 6 5 5 5 5 5 5 5 6 6 7 7 8 9 10
13 15 16 16 16 15 15 14 13 12 11 11 11 10 10 10 9 9 9 10 10 10 10 10 9 9 8 7 6 6 5 6 6 6 6 6 6 7 7 7 8 8 9 10
13 14 15 15 16 15 14 13 12 11 11 11 10 10 11 10 10 10 9 10 10 10 10 10 9 8 8 7 7 6 6 6 6 6 6 6 7 7 7 7 8 9 10 10
12 13 15 16 15 14 14 13 12 12 11 12 11 10 10 10 11 10 10 9 10 10 10 9 9 8 8 7 8 7 7 7 7 7 7 7 7 7 8 8 9 10 10 11
12 12 12 13 13 13 13 13 12 12 10 10 10 9 10 10 10 10 10 9 10 10 9 9 9 8 8 8 8 8 8 8 8 8 8 8 8 8 9 9 10 11 11 12
13 12 13 13 13 12 12 13 13 12 10 9 8 8 9 9 9 9 9 9 9 10 9 9 9 8 8 8 8 8 9 8 8 9 9 9 9 10 10 11 12 13 13 14
14 14 14 14 13 12 12 12 12 12 11 11 10 9 9 9 9 9 10 9 10 10 9 9 9 9 9 9 9 9 9 9 10 10 10 11 11 12 12 13 14 15 15 15
16 15 15 15 14 13 12 12 13 12 12 12 11 10 10 10 10 10 10 10 10 11 10 10 10 10 10 9 9 10 10 11 12 12 12 12 13 14 14 15 16 16 17 18
16 16 15 15 15 14 12 12 12 12 12 12 11 11 11 11 12 11 11 10 11 11 11 11 11 11 11 11 11 12 12 13 13 14 14 15 15 16 17 17 18 19 19 20
17 17 17 17 16 14 14 13 13 13 13 13 12 12 12 12 13 13 13 13 13 13 13 13 13 13 13 13 14 15 15 16 16 16 17 17 18 19 19 20 21 21 22 23
19 19 19 19 18 16 14 14 14 15 14 14 13 13 13 13 14 14 14 15 15 14 15 15 15 16 16 17 17 18 18 18 19 19 20 20 21 21 22 23 24 25 25 26
21 21 21 21 20 18 17 17 17 16 14 15 14 14 14 15 15 16 16 16 16 16 17 17 18 18 19 20 20 21 21 21 21 22 22 23 24 25 25 26 27 28 28 29
23 23 23 23 23 20 19 19 19 18 17 17 16 16 16 17 17 18 18 18 19 19 19 20 20 21 22 22 23 23 23 24 24 24 25 26 27 28 29 30 30 31 32 32
24 24 24 25 24 22 22 22 21 21 20 19 19 19 19 19 19 20 20 21 21 21 22 22 23 23 24 24 24 25 26 26 27 27 28 29 30 31 32 33 33 34 35 36
25 25 26 26 25 24 24 24 23 23 22 22 22 22 21 21 22 22 22 23 23 23 24 24 25 25 26 26 27 27 28 29 30 30 31 32 33 33 34 35 36 37 38 39
26 26 26 26 26 26 25 25 25 25 24 24 24 24 24 24 24 24 24 25 25 25 26 26 27 27 28 29 29 30 31 31 32 33 34 35 35 36 37 38 39 40 41 42
27 28 27 27 27 27 27 27 27 27 27 27 27 26 26 26 27 27 27 27 28 28 29 29 29 30 31 31 32 33 33 34 35 36 37 37 38 39 40 41 42 43 44 45
Wind_Direction
186 187 189 191 193 192 193 194 195 199 203 205 204 202 203 206 205 205 208 208 204 201 205 204 201 199 200 201 205 217 236 258 272 295 309 314 324 332 336 341 345 348 351 353
177 180 183 186 188 189 192 192 190 193 197 201 202 199 199 203 206 205 206 207 205 207 207 202 203 205 201 200 207 218 233 257 279 299 312 319 324 331 335 340 345 347 350 353
172 174 179 181 180 182 187 189 189 193 193 194 198 199 198 202 205 205 202 200 203 208 206 204 204 200 197 198 204 216 233 258 287 304 310 319 328 332 337 341 344 346 348 351
167 171 173 175 176 179 179 180 185 185 188 193 195 196 196 197 204 204 198 196 199 202 202 202 203 197 194 194 196 211 226 253 283 299 307 318 330 335 339 342 344 346 349 353
160 163 165 169 173 176 179 180 185 187 190 192 193 196 193 196 199 201 196 190 194 199 200 196 198 197 195 194 198 210 224 248 275 294 299 318 330 335 338 341 345 349 353 355
159 164 166 167 168 170 173 177 184 190 193 196 195 198 192 192 195 197 195 194 194 197 196 192 195 198 198 201 206 217 232 250 264 282 299 319 327 333 338 341 345 349 353 354
159 163 167 169 170 175 178 181 184 190 191 193 193 196 189 190 191 193 198 197 193 194 194 193 196 201 200 207 212 220 231 246 262 280 297 315 318 325 330 336 339 346 351 352
160 163 166 170 173 174 178 181 183 189 190 187 192 192 188 189 190 191 197 196 190 189 192 192 195 198 203 209 213 221 232 244 261 279 294 309 314 319 324 328 333 341 348 350
159 164 167 171 172 175 179 185 191 194 199 195 190 187 184 191 193 193 192 192 190 188 192 192 196 201 208 215 220 225 233 245 262 278 290 299 308 315 319 320 324 335 343 347
157 161 163 163 168 174 179 184 191 196 196 197 193 186 179 179 181 184 192 192 189 188 194 199 202 207 213 218 224 230 238 249 263 273 286 295 304 311 314 318 323 328 333 338
160 164 166 166 170 175 180 189 195 196 198 200 197 185 178 180 182 186 191 194 194 193 200 204 206 211 217 223 228 235 242 254 262 274 284 290 298 306 311 314 319 324 328 331
166 166 169 172 176 181 187 197 204 207 205 203 199 194 190 182 186 189 195 199 200 202 207 209 211 217 223 227 232 237 245 254 262 273 283 293 296 300 306 309 313 317 321 324
175 177 175 178 184 191 196 201 207 211 208 206 204 196 187 185 186 190 196 199 202 207 211 215 217 224 228 233 237 240 245 255 264 273 284 293 297 301 303 306 309 313 315 317
191 187 187 187 192 200 201 203 207 212 207 199 196 195 195 195 195 198 201 203 203 207 212 219 224 227 233 239 239 241 249 259 267 275 283 290 296 299 301 304 308 311 313 313
195 194 193 190 196 205 208 209 214 217 216 215 217 215 212 210 209 208 208 207 208 212 217 222 226 230 234 237 241 249 255 261 269 276 282 288 293 296 298 300 303 306 308 309
204 205 203 199 202 209 212 216 219 222 224 228 235 233 224 220 217 216 213 212 215 219 224 228 229 232 236 241 250 257 261 267 272 276 280 285 290 292 295 298 302 303 304 305
210 212 210 210 215 220 221 220 222 226 233 238 236 232 227 223 222 220 218 218 222 227 232 234 236 240 244 247 253 258 263 269 273 277 280 283 287 289 293 296 299 301 302 303
214 218 220 223 226 229 222 224 224 227 231 233 230 227 225 226 226 225 223 226 231 235 237 240 243 246 248 253 257 262 267 272 274 277 280 283 285 288 291 294 296 298 300 300
220 223 227 229 230 227 226 226 228 232 233 234 235 232 230 229 230 230 233 237 239 241 243 246 249 252 256 259 263 267 271 274 276 278 280 282 285 287 289 292 294 296 297 297
225 226 230 233 236 234 229 231 234 237 239 238 237 235 236 234 236 236 239 241 243 245 248 252 255 258 262 265 268 271 274 276 277 279 281 283 285 286 288 290 293 294 295 295
229 231 234 236 238 238 237 238 239 242 244 244 243 242 242 243 245 245 245 245 246 249 252 256 259 262 265 268 271 274 276 278 279 280 281 283 285 286 288 290 291 293 293 294
234 235 236 237 239 239 239 240 242 244 243 245 245 246 247 249 249 250 250 251 251 254 256 259 262 265 268 270 272 274 276 278 280 281 282 284 285 286 287 289 290 291 292 293
237 238 239 240 242 243 242 242 243 244 245 246 247 248 250 252 253 254 253 255 257 259 260 262 264 267 269 271 272 274 276 278 280 282 283 285 286 286 287 288 289 291 292 292
242 242 243 243 243 244 245 245 245 246 247 248 249 251 252 255 257 258 258 260 262 264 264 266 267 269 271 273 275 276 278 279 281 283 284 285 286 286 287 288 289 291 292 292
245 246 247 247 246 246 247 247 247 248 249 250 251 252 254 257 260 262 264 266 267 268 268 268 269 271 273 275 276 277 278 280 282 283 284 285 286 287 287 288 289 290 291 291
245 246 247 248 248 249 249 249 250 250 250 251 253 255 256 259 261 264 266 268 269 269 270 271 272 273 275 276 277 278 279 281 282 283 285 286 287 288 288 289 289 290 291 291
Height
5791 5796 5799 5804 5808 5812 5816 5819 5823 5826 5830 5833 5836 5838 5841 5843 5845 5847 5849 5851 5853 5855 5856 5857 5859 5860 5861 5862 5863 5863 5864 5864 5863 5863 5862 5861 5860 5859 5858 5856 5854 5852 5850 5848
5792 5796 5799 5802 5806 5810 5814 5818 5821 5825 5828 5831 5833 5836 5839 5841 5844 5845 5847 5849 5851 5853 5855 5856 5857 5858 5859 5861 5862 5862 5862 5862 5862 5862 5861 5860 5859 5858 5857 5855 5854 5852 5849 5847
5793 5797 5799 5802 5806 5810 5813 5817 5821 5823 5826 5829 5832 5834 5837 5839 5841 5843 5845 5847 5849 5851 5852 5854 5856 5857 5858 5859 5860 5861 5861 5861 5861 5861 5860 5859 5858 5857 5856 5854 5853 5851 5849 5846
5793 5796 5799 5803 5806 5810 5813 5817 5820 5822 5825 5827 5831 5833 5836 5837 5839 5841 5844 5846 5848 5849 5851 5852 5854 5856 5857 5858 5859 5860 5860 5860 5860 5860 5859 5858 5857 5856 5855 5854 5852 5850 5848 5846
5795 5797 5800 5804 5807 5810 5813 5816 5819 5821 5824 5827 5829 5832 5835 5836 5838 5840 5842 5844 5846 5847 5849 5851 5853 5854 5856 5857 5858 5858 5859 5859 5859 5858 5858 5857 5856 5855 5854 5853 5851 5849 5847 5845
5796 5799 5802 5804 5807 5810 5813 5816 5818 5820 5823 5826 5828 5830 5833 5834 5837 5839 5840 5842 5844 5846 5848 5849 5851 5853 5854 5856 5856 5857 5858 5858 5858 5857 5857 5856 5855 5854 5853 5852 5850 5848 5846 5844
5797 5800 5802 5804 5807 5810 5813 5816 5818 5820 5822 5825 5827 5828 5832 5833 5835 5837 5839 5841 5843 5845 5846 5848 5850 5851 5853 5854 5855 5856 5856 5856 5856 5856 5855 5855 5854 5853 5852 5851 5849 5848 5846 5844
5798 5801 5803 5805 5808 5810 5813 5816 5819 5821 5822 5824 5825 5827 5830 5831 5833 5835 5837 5839 5841 5843 5845 5847 5849 5850 5852 5853 5853 5854 5855 5855 5855 5855 5854 5854 5853 5852 5851 5850 5848 5847 5845 5843
5799 5802 5804 5806 5808 5811 5813 5815 5818 5820 5821 5823 5824 5826 5828 5830 5832 5834 5836 5838 5839 5841 5843 5845 5847 5849 5850 5851 5852 5852 5853 5853 5853 5853 5853 5852 5851 5850 5849 5848 5847 5845 5844 5842
5800 5802 5804 5806 5809 5811 5814 5816 5818 5819 5820 5821 5823 5825 5828 5829 5831 5833 5835 5836 5838 5840 5842 5844 5846 5847 5848 5849 5850 5851 5851 5851 5851 5851 5851 5850 5849 5849 5848 5846 5845 5844 5842 5841
5801 5803 5806 5807 5809 5812 5814 5816 5817 5818 5819 5821 5823 5827 5827 5828 5830 5831 5833 5835 5837 5839 5840 5842 5844 5845 5846 5847 5848 5849 5849 5849 5849 5849 5849 5848 5847 5847 5846 5845 5843 5842 5841 5839
5802 5804 5806 5808 5810 5811 5813 5814 5816 5818 5819 5820 5822 5827 5825 5827 5828 5830 5832 5833 5835 5837 5839 5840 5842 5843 5844 5845 5846 5847 5847 5847 5847 5847 5847 5846 5845 5844 5844 5843 5842 5840 5839 5838
5803 5805 5806 5808 5811 5812 5812 5813 5815 5817 5818 5819 5821 5826 5824 5825 5827 5828 5830 5831 5833 5835 5837 5838 5840 5841 5842 5843 5843 5844 5845 5845 5845 5845 5844 5844 5843 5842 5841 5841 5839 5838 5837 5835
5803 5804 5807 5809 5809 5810 5811 5813 5814 5816 5817 5818 5820 5823 5824 5825 5826 5827 5828 5830 5831 5833 5835 5836 5838 5839 5840 5840 5841 5842 5842 5842 5842 5842 5842 5841 5840 5840 5839 5838 5837 5836 5834 5833
5801 5803 5805 5806 5808 5809 5810 5811 5813 5815 5816 5818 5820 5821 5822 5823 5825 5826 5827 5828 5829 5831 5833 5834 5835 5836 5837 5838 5839 5839 5839 5840 5840 5839 5839 5838 5838 5837 5836 5835 5834 5833 5831 5830
5800 5802 5804 5805 5806 5807 5809 5810 5811 5813 5814 5816 5818 5819 5820 5821 5822 5824 5825 5826 5828 5829 5830 5832 5833 5834 5835 5835 5836 5836 5836 5836 5836 5836 5836 5835 5834 5834 5832 5831 5830 5829 5828 5826
5798 5800 5802 5803 5804 5805 5807 5808 5809 5811 5812 5814 5815 5818 5818 5819 5820 5821 5823 5824 5825 5827 5828 5829 5830 5831 5831 5832 5833 5833 5833 5833 5833 5832 5832 5831 5831 5830 5829 5827 5826 5825 5823 5822
5795 5797 5799 5800 5802 5803 5807 5806 5807 5808 5810 5811 5813 5814 5815 5817 5818 5819 5821 5822 5823 5824 5825 5826 5827 5827 5828 5829 5829 5829 5829 5829 5829 5828 5828 5827 5826 5825 5824 5823 5822 5820 5818 5817
5792 5794 5795 5797 5798 5800 5802 5803 5804 5805 5807 5808 5810 5811 5812 5813 5814 5816 5817 5818 5820 5820 5821 5822 5823 5824 5824 5825 5825 5825 5825 5825 5824 5823 5823 5822 5821 5820 5819 5818 5816 5814 5813 5811
5788 5790 5792 5793 5795 5797 5800 5800 5801 5803 5804 5805 5806 5808 5809 5810 5811 5813 5814 5815 5816 5816 5817 5818 5819 5819 5820 5820 5820 5820 5820 5819 5819 5818 5817 5816 5815 5814 5813 5811 5810 5808 5806 5804
5784 5785 5787 5789 5790 5793 5796 5796 5798 5800 5802 5802 5803 5804 5805 5806 5808 5809 5809 5810 5811 5812 5813 5813 5814 5814 5814 5814 5814 5814 5814 5813 5812 5812 5811 5810 5808 5807 5806 5804 5802 5800 5798 5796
5779 5780 5782 5784 5785 5790 5791 5792 5794 5795 5796 5797 5798 5800 5801 5802 5803 5804 5805 5805 5806 5806 5807 5808 5808 5808 5808 5808 5808 5807 5807 5806 5805 5804 5803 5802 5801 5799 5797 5796 5794 5792 5790 5787
5773 5776 5777 5779 5782 5784 5785 5787 5788 5790 5791 5792 5793 5795 5796 5797 5797 5798 5799 5800 5800 5800 5801 5801 5801 5801 5801 5801 5801 5800 5799 5798 5797 5796 5795 5793 5792 5790 5788 5786 5784 5782 5780 5777
5767 5769 5771 5773 5775 5777 5779 5780 5782 5784 5785 5786 5787 5789 5790 5791 5792 5792 5793 5793 5793 5794 5794 5794 5794 5794 5793 5793 5793 5792 5791 5790 5789 5787 5786 5784 5782 5780 5778 5776 5774 5771 5769 5766
5760 5762 5763 5765 5768 5770 5772 5774 5776 5777 5779 5780 5781 5782 5783 5784 5785 5785 5786 5786 5786 5786 5786 5786 5786 5785 5785 5785 5784 5783 5782 5781 5780 5778 5776 5774 5772 5770 5768 5765 5762 5760 5757 5753
5753 5755 5757 5758 5760 5762 5765 5766 5768 5770 5771 5772 5774 5775 5776 5776 5777 5777 5778 5778 5778 5778 5777 5777 5777 5777 5776 5775 5774 5773 5772 5771 5770 5768 5766 5764 5762 5759 5757 5754 5751 5747 5744 5741